Regional Weather Roundup
Issued by NWS

Home | Current Version | Previous Version | Text Only | Print | Product List | Glossary On
Versions: 1 2 3 4 5 6 7 8 9 10 11 12 13 14 15 16 17 18 19 20 21 22 23 24 25 26 27 28 29 30 31 32 33 34 35 36 37 38 39 40 41 42 43 44 45 46 47 48 49 50
000
ASUS43 KLMK 311810
RWRKY
KENTUCKY REGIONAL WEATHER ROUNDUP
NATIONAL WEATHER SERVICE LOUISVILLE KY
100 PM EST SAT JAN 31 2015

NOTE "FAIR" INDICATES FEW OR NO CLOUDS BELOW 12,000 FEET
WITH NO SIGNIFICANT WEATHER AND/OR OBSTRUCTIONS TO VISIBILITY.

KYZ001>023-026-027-061>063-070>075-311900-
WESTERN AND SOUTH CENTRAL KENTUCKY

CITY           SKY/WX    TMP DP  RH WIND       PRES   REMARKS
PADUCAH        CLOUDY    43  24  47 VRB6      30.36F
HENDERSON      CLOUDY    39  25  56 S6        30.35F WCI  35
OWENSBORO      CLOUDY    41  25  53 SW7       30.37F
HOPKINSVILLE   MOSUNNY   45  21  38 VRB2      30.35F
BOWLING GREEN  CLOUDY    41  22  46 SW10      30.38F
GLASGOW        PTSUNNY   40  21  46 CALM      30.36F
$$

KYZ024-025-028>034-038-045-046-053-311900-
NORTH CENTRAL KENTUCKY

CITY           SKY/WX    TMP DP  RH WIND       PRES   REMARKS
LOUISVILLE/SDF CLOUDY    41  19  41 SW7       30.36F
LOUISVILLE/LOU PTSUNNY   39  19  44 SW6       30.37F WCI  35
FORT KNOX      PTSUNNY   40  20  45 SW7       30.34F WCI  35
$$

KYZ035>037-039>044-047>052-055>060-089>105-311900-
NORTHEAST KENTUCKY

CITY           SKY/WX    TMP DP  RH WIND       PRES   REMARKS
LEXINGTON      PTSUNNY   37  20  50 SW5       30.36F WCI  33
COVINGTON      CLOUDY    36  19  50 SW9       30.32F WCI  29
FRANKFORT      PTSUNNY   38  18  44 S6        30.35F WCI  33
$$

KYZ054-064>069-076>088-106>120-311900-
SOUTHEAST KENTUCKY

CITY           SKY/WX    TMP DP  RH WIND       PRES   REMARKS
JACKSON        SUNNY     36  16  44 VRB3      30.33F
LONDON         PTSUNNY   39  11  31 S3        30.35F
SOMERSET       CLOUDY    36  19  51 SW3       30.38F
MIDDLESBORO    PTSUNNY   37  17  44 CALM      30.37F
MONTICELLO     MOCLDY    42  14  32 CALM      30.38F
$$



USA.gov is the U.S. government's official web portal to all federal, state and local government web resources and services.